Miscellaneous Local Product
Issued by NWS Hastings, NE

Home | Current Version | Previous Version | Text Only | Print | Product List | Glossary On
Versions: 1 2 3 4 5 6 7 8 9 10 11 12 13 14 15 16 17 18 19 20 21 22 23 24 25 26 27 28 29 30 31 32 33 34 35 36 37 38 39 40 41 42 43 44 45 46 47 48 49 50
000
AXUS43 KGID 230802
MISGRI

GID CWA HOURLY WEATHER ROUNDUP
NATIONAL WEATHER SERVICE HASTINGS NE
300 AM CDT WED JUL 23 2014

NOTE: "FAIR" INDICATES FEW OR NO CLOUDS BELOW 12,000 FEET WITH NO
SIGNIFICANT WEATHER AND/OR OBSTRUCTIONS TO VISIBILITY.

...SOUTH CENTRAL NEBRASKA...

CITY           SKY/WX    TMP DP  RH WIND       PRES   REMARKS
GRAND ISLAND   PTCLDY    67  64  90 N7        30.25S
HASTINGS       PTCLDY    68  64  87 NE6       30.23F
KEARNEY        CLEAR     66  64  94 NE9       30.24F
ORD            CLOUDY    64  62  93 N6        30.25F
YORK           CLEAR     66  66 100 NE8       30.22F
AURORA         CLEAR     68  68 100 N7        30.23F
LEXINGTON      PTCLDY    69  66  93 NE5       30.27S
HOLDREGE       PTCLDY    69  67  93 NE6       30.24S THUNDER
HEBRON         PTCLDY    73  68  83 NE3       30.20S

...NEBRASKA PANHANDLE...

CITY           SKY/WX    TMP DP  RH WIND       PRES   REMARKS
CHADRON        PTCLDY    68  63  84 NE5       30.28R
ALLIANCE       CLEAR     67  61  81 SE14      30.31R
SCOTTSBLUFF    CLEAR     71  63  75 SE15G23   30.30F
SIDNEY         PTCLDY    69  61  75 E17       30.34S

...WESTERN AND NORTH CENTRAL NEBRASKA...

CITY           SKY/WX    TMP DP  RH WIND       PRES   REMARKS
VALENTINE      CLOUDY    71  60  68 SE12      30.24F
AINSWORTH      CLOUDY    66  61  85 SE6       30.28F
ONEILL         CLOUDY    67  59  73 SE3       30.25F
BROKEN BOW     MOCLDY    65  63  93 CALM      30.26F
IMPERIAL       MOCLDY    71  65  81 E9        30.28F
NORTH PLATTE   MOCLDY    67  64  90 SE6       30.28F
MCCOOK         CLEAR     71  68  90 NE9       30.24F

...EASTERN NEBRASKA...

CITY           SKY/WX    TMP DP  RH WIND       PRES   REMARKS
NORFOLK        PTCLDY    67  57  70 E5        30.23F
SO SIOUX CITY  CLEAR     65  58  78 N5        30.21F
TEKAMAH        CLEAR     64  60  87 N8        30.21S
COLUMBUS       CLEAR     64  57  77 NE5       30.24S
ALBION         MOCLDY    65  60  86 N6        30.27R
OMAHA EPPLEY   PTCLDY    68  62  81 N9        30.20R
OFFUTT AFB     CLEAR     71  62  74 N8        30.18S
MILLARD        CLEAR     73  61  67 N3        30.20R
LINCOLN        CLEAR     69  64  84 N8        30.20S
NEBRASKA CITY  CLEAR     68  64  85 N7        30.18R
BEATRICE       CLEAR     65  64  96 N3        30.19R
FALLS CITY     CLEAR     72  68  87 N3        30.14S

...NORTHERN KANSAS...

CITY           SKY/WX    TMP DP  RH WIND       PRES   REMARKS
GOODLAND       CLEAR     70  68  93 E10       30.28F
HILL CITY      CLEAR     74  68  81 E8        30.21F
NORTON         SUNNY     72  64  78 CALM      30.22S
PHILLIPSBURG   CLEAR     73  66  78 NE7       30.20S
SMITH CENTER   CLEAR     73  66  78 E14       30.19F
HAYS           CLEAR     75  66  73 E12       30.18F
RUSSELL        CLEAR     77  70  79 NE10      30.16F
CONCORDIA      PTCLDY    74  69  85 NE9       30.17F
SALINA         CLOUDY    83  73  72 NE12      30.14S
TOPEKA         CLOUDY    80  72  76 N8        30.11S



USA.gov is the U.S. government's official web portal to all federal, state and local government web resources and services.